Dubuque, IA

12:15 AM CST on January 18, 2018 (GMT -0600)
Dubuque Regional

Weather History for KDBQ - May, 2013

Change the Weather History Date:

Sunday, May 26, 2013

  Actual Average Record
Temperature  
Mean Temperature 50 °F 62 °F  
Max Temperature 55 °F 72 °F 91 °F (1914)
Min Temperature 45 °F 52 °F 33 °F (1961)
Degree Days  
Heating Degree Days 15 5  
Month to date heating degree days 209 205  
Since 1 July heating degree days 7249 7026  
Cooling Degree Days 0 2  
Month to date cooling degree days 24 22  
Year to date cooling degree days 32 27  
Moisture  
Dew Point 47 °F    
Average Humidity 83    
Maximum Humidity 100    
Minimum Humidity 66    
Precipitation  
Precipitation 0.46 in 0.14 in 2.25 in (1965)
Month to date precipitation 5.45 3.50  
Year to date precipitation 19.98 12.18  
Snow  
Snow 0.00 in 0.00 in - ()
Month to date snowfall 0.0 0.1  
Since 1 July snowfall 54.5 42.0  
Snow Depth 0.00 in    
Sea Level Pressure  
Sea Level Pressure 30.18 in    
Wind  
Wind Speed 10 mph (ESE)    
Max Wind Speed 35 mph    
Max Gust Speed 43 mph    
Visibility 7 miles    
Events Rain    
T = Trace of Precipitation, MM = Missing Value Source: NWS Daily Summary

Daily Weather History Graph

Daily Weather History Graph

Search for Another Location

Airport or City:

Trip Planner

Search our weather history database for the weather conditions in past years. The results will help you decide how hot, cold, wet, or windy it might be!

Date:

Astronomy

May. 26, 2013 Rise Set
Actual Time 5:31 AM CDT 8:28 PM CDT
Civil Twilight 4:58 AM CDT 9:02 PM CDT
Nautical Twilight 4:15 AM CDT 9:44 PM CDT
Astronomical Twilight 3:26 AM CDT 10:34 PM CDT
Moon 10:15 PM CDT (5/26) 7:01 AM CDT (5/26)
Length of Visible Light 16h 03m
Length of Day
14h 56m
Waning Gibbous, 96% of the Moon is Illuminated
May 26
Waning Gibbous
May 31
Last Quarter
Jun 8
New
Jun 16
First Quarter
Jun 23
Full

Hourly Weather History & Observations

Time (CDT) Temp. Windchill Dew Point Humidity Pressure Visibility Wind Dir Wind Speed Gust Speed Precip Events Conditions
12:53 AM 46.9 °F - 42.1 °F 83% 30.27 in 10.0 mi East 6.9 mph - N/A   Clear
1:53 AM 46.0 °F 43.1 °F 41.0 °F 83% 30.26 in 10.0 mi East 5.8 mph - N/A   Clear
2:53 AM 46.0 °F 43.1 °F 41.0 °F 83% 30.25 in 10.0 mi ESE 5.8 mph - N/A   Clear
3:53 AM 46.0 °F 42.5 °F 41.0 °F 83% 30.26 in 9.0 mi ESE 6.9 mph - N/A   Clear
4:53 AM 46.0 °F 41.0 °F 41.0 °F 83% 30.23 in 9.0 mi ESE 10.4 mph - N/A   Clear
5:53 AM 46.0 °F 41.0 °F 42.1 °F 86% 30.24 in 7.0 mi East 10.4 mph - N/A   Overcast
6:32 AM 46.4 °F 41.5 °F 39.2 °F 76% 30.23 in 10.0 mi ESE 10.4 mph - N/A   Overcast
6:53 AM 46.9 °F - 39.9 °F 77% 30.27 in 10.0 mi ESE 8.1 mph - N/A   Overcast
7:27 AM 46.4 °F 41.1 °F 39.2 °F 76% 30.25 in 10.0 mi ESE 11.5 mph - N/A   Overcast
7:53 AM 46.9 °F - 39.0 °F 74% 30.25 in 10.0 mi East 12.7 mph - 0.00 in Rain Light Rain
8:48 AM 48.2 °F - 39.2 °F 71% 30.24 in 10.0 mi SE 5.8 mph - 0.00 in   Overcast
8:53 AM 48.0 °F - 39.9 °F 74% 30.26 in 10.0 mi ESE 6.9 mph - 0.00 in   Overcast
9:53 AM 50.0 °F - 39.0 °F 66% 30.25 in 10.0 mi ESE 11.5 mph - N/A   Overcast
10:53 AM 51.1 °F - 42.1 °F 71% 30.26 in 10.0 mi ESE 8.1 mph - N/A   Overcast
11:53 AM 50.0 °F - 45.0 °F 83% 30.29 in 4.0 mi Calm Calm - 0.03 in Rain Rain
12:53 PM 48.9 °F - 46.9 °F 93% 30.23 in 6.0 mi East 8.1 mph - 0.08 in Rain Light Rain
1:53 PM 50.0 °F - 48.9 °F 96% 30.23 in 4.0 mi East 8.1 mph - 0.09 in Rain Rain
2:30 PM 50.0 °F - 48.2 °F 94% 30.16 in 2.5 mi SE 20.7 mph 25.3 mph 0.12 in Rain Heavy Rain
2:45 PM 50.0 °F - 50.0 °F 100% 30.13 in 3.0 mi SE 24.2 mph - 0.16 in Rain Rain
2:53 PM 50.0 °F - 50.0 °F 100% 30.11 in 4.0 mi SE 24.2 mph 34.5 mph 0.17 in Rain Light Rain
3:53 PM 54.0 °F - 51.1 °F 90% 30.16 in 8.0 mi ESE 10.4 mph 20.7 mph 0.04 in   Overcast
4:05 PM 53.6 °F - 51.8 °F 94% 30.15 in 8.0 mi ESE 8.1 mph 16.1 mph N/A   Mostly Cloudy
4:53 PM 54.0 °F - 52.0 °F 93% 30.16 in 5.0 mi East 8.1 mph - 0.00 in Rain Light Rain
5:40 PM 53.6 °F - 53.6 °F 100% 30.14 in 5.0 mi ENE 6.9 mph - 0.01 in   Overcast
5:53 PM 54.0 °F - 53.1 °F 97% 30.15 in 5.0 mi East 8.1 mph - 0.01 in   Overcast
6:53 PM 54.0 °F - 53.1 °F 97% 30.08 in 4.0 mi ESE 17.3 mph 25.3 mph 0.02 in   Overcast
7:09 PM 53.6 °F - 53.6 °F 100% 30.08 in 4.0 mi ESE 16.1 mph 25.3 mph N/A   Overcast
7:53 PM 54.0 °F - 53.1 °F 97% 30.11 in 5.0 mi East 13.8 mph - N/A   Overcast
8:48 PM 53.6 °F - 53.6 °F 100% 30.10 in 7.0 mi ESE 9.2 mph - 0.01 in   Overcast
8:53 PM 54.0 °F - 53.1 °F 97% 30.12 in 7.0 mi East 8.1 mph - 0.02 in   Overcast
9:04 PM 53.6 °F - 53.6 °F 100% 30.10 in 7.0 mi East 6.9 mph - N/A   Overcast
9:51 PM 53.6 °F - 53.6 °F 100% 30.10 in 6.0 mi East 12.7 mph - N/A   Overcast
9:53 PM 54.0 °F - 53.1 °F 97% 30.12 in 6.0 mi East 10.4 mph - N/A   Overcast
10:29 PM 53.6 °F - 53.6 °F 100% 30.10 in 6.0 mi ESE 11.5 mph - N/A   Overcast
10:53 PM 55.0 °F - 53.1 °F 93% 30.11 in 7.0 mi East 11.5 mph - N/A   Overcast
11:10 PM 55.4 °F - 53.6 °F 94% 30.09 in 7.0 mi East 12.7 mph 19.6 mph N/A   Overcast
11:46 PM 55.4 °F - 53.6 °F 94% 30.07 in 7.0 mi ESE 12.7 mph 21.9 mph N/A   Overcast
11:53 PM 55.0 °F - 54.0 °F 96% 30.07 in 6.0 mi ESE 11.5 mph - N/A   Overcast